This is the latest recevied weather packets stored in our database for station/object WE8M. If no packets are shown the sender has not sent any weather packets the latest 1 day(s).
| Time | Temp. | Humidity | Pressure | Rain* | Wind** | Luminosity | Snow |
|---|---|---|---|---|---|---|---|
| 1778032174 | 15° C | 91% | 1008.6 hPa | 1.27 mm | - | - | - |
| 1778031871 | 15° C | 90% | 1008.4 hPa | 0 mm | - | - | - |
| 1778031567 | 15° C | 89% | 1008 hPa | 0 mm | - | - | - |
| 1778031265 | 15° C | 88% | 1007.7 hPa | 0 mm | - | - | - |
| 1778030961 | 15° C | 88% | 1007.5 hPa | 0 mm | - | - | - |
| 1778030658 | 15° C | 87% | 1007.6 hPa | 0 mm | - | - | - |
| 1778030355 | 15° C | 87% | 1007.2 hPa | 0 mm | - | - | - |
| 1778030052 | 15° C | 87% | 1007.3 hPa | 0 mm | - | - | - |
| 1778029749 | 15° C | 87% | 1007.6 hPa | 0 mm | - | - | - |
| 1778029447 | 15° C | 88% | 1007.8 hPa | 0 mm | - | - | - |
| 1778029144 | 15° C | 88% | 1007.8 hPa | 0 mm | - | - | - |
| 1778028841 | 15° C | 88% | 1007.7 hPa | 0 mm | - | - | - |
| 1778028536 | 15° C | 88% | 1007.9 hPa | 1.78 mm | - | - | - |
| 1778028235 | 15° C | 88% | 1007.8 hPa | 3.56 mm | - | - | - |
| 1778027627 | 15° C | 88% | 1007.7 hPa | 0 mm | - | - | - |
| 1778027020 | 15.56° C | 87% | 1007.9 hPa | 1.27 mm | - | - | - |
| 1778026715 | 15.56° C | 87% | 1007.7 hPa | 0 mm | - | - | - |
| 1778026413 | 15.56° C | 86% | 1008 hPa | 1.78 mm | - | - | - |
| 1778024293 | 15.56° C | 87% | 1008 hPa | 0 mm | - | - | - |
| 1778023991 | 15.56° C | 88% | 1007.8 hPa | 0 mm | - | - | - |
| 1778023688 | 15.56° C | 88% | 1007.7 hPa | 0 mm | - | - | - |
| 1778023082 | 15.56° C | 88% | 1008.1 hPa | 0 mm | - | - | - |
| 1778022478 | 16.11° C | 88% | 1008.4 hPa | 0 mm | - | - | - |
| 1778020355 | 16.11° C | 91% | 1009.2 hPa | 1.27 mm | - | - | - |
| 1778020051 | 16.11° C | 91% | 1009.1 hPa | 0 mm | - | - | - |
* Rain latest hour (hover to see other rain measurements)
** Current wind speed in m/s (hover to see current wind gust speed)